When you browse on this site, cookies collect data to enhance your experience and personalize the content and advertising you see.
Visit our Privacy Policy to learn more. By continuing to use the site, you agree to this use of cookies and data.
  • In Hungary
  • List of Countries
  • For 7 days
  • Water Temperature
  • Weather Map
  • News
  • Weather Widgets
  • user-avatar
    Login

    Hourly Weather Mazanovo

    Today, 6 December, Friday

    Time Temperature Precipitation Wind Pressure Humidity
    00:00 -2°C° 0 mm 5 mps 743 mmHg 87%
    01:00 -4°C° 0 mm 5 mps 743 mmHg 85%
    02:00 -3°C° 0 mm 4 mps 743 mmHg 87%
    03:00 -3°C° 0 mm 4 mps 742 mmHg 86%
    04:00 -4°C° 0 mm 4 mps 742 mmHg 86%
    05:00 -4°C° 0 mm 4 mps 742 mmHg 85%
    06:00 -5°C° 0 mm 5 mps 741 mmHg 85%
    07:00 -5°C° 0 mm 5 mps 741 mmHg 84%
    08:00 -5°C° 0 mm 5 mps 741 mmHg 84%
    09:00 -4°C° 0 mm 5 mps 740 mmHg 82%
    10:00 -4°C° 0 mm 6 mps 740 mmHg 80%
    11:00 -3°C° 0 mm 6 mps 740 mmHg 78%
    12:00 -3°C° 0 mm 6 mps 739 mmHg 76%
    13:00 -2°C° 0 mm 6 mps 739 mmHg 74%
    14:00 -2°C° 0 mm 6 mps 739 mmHg 72%
    15:00 -2°C° 0 mm 6 mps 739 mmHg 71%
    16:00 -2°C° 0 mm 6 mps 739 mmHg 71%
    17:00 -2°C° 0 mm 6 mps 738 mmHg 70%
    18:00 -2°C° 0 mm 6 mps 739 mmHg 71%
    19:00 -2°C° 0 mm 6 mps 739 mmHg 72%
    20:00 -1°C° 0 mm 5 mps 739 mmHg 73%
    21:00 -1°C° 0 mm 5 mps 739 mmHg 75%
    22:00 -1°C° 0 mm 5 mps 739 mmHg 76%
    23:00 -1°C° 0 mm 5 mps 739 mmHg 77%

    Tomorrow, 7 December, Saturday

    Time Temperature Precipitation Wind Pressure Humidity
    00:00 -1°C° 0.1 mm 5 mps 739 mmHg 79%
    01:00 -2°C° 0.1 mm 5 mps 739 mmHg 81%
    02:00 -2°C° 0.1 mm 5 mps 739 mmHg 82%
    03:00 -2°C° 0.1 mm 4 mps 739 mmHg 83%
    04:00 -2°C° 0.1 mm 4 mps 738 mmHg 84%
    05:00 -2°C° 0.1 mm 4 mps 738 mmHg 85%
    06:00 -2°C° 0.4 mm 4 mps 738 mmHg 86%
    07:00 -2°C° 0.4 mm 4 mps 738 mmHg 88%
    08:00 -2°C° 0.4 mm 4 mps 738 mmHg 89%
    09:00 -2°C° 0.1 mm 5 mps 738 mmHg 86%
    10:00 -2°C° 0.1 mm 5 mps 737 mmHg 83%
    11:00 -2°C° 0.1 mm 5 mps 737 mmHg 80%
    12:00 -2°C° 0 mm 5 mps 737 mmHg 79%
    13:00 -2°C° 0 mm 5 mps 736 mmHg 78%
    14:00 -2°C° 0 mm 5 mps 736 mmHg 77%
    15:00 -2°C° 0 mm 5 mps 736 mmHg 78%
    16:00 -2°C° 0 mm 5 mps 735 mmHg 78%
    17:00 -2°C° 0 mm 5 mps 735 mmHg 79%
    18:00 -2°C° 0 mm 5 mps 735 mmHg 79%
    19:00 -2°C° 0 mm 5 mps 735 mmHg 80%
    20:00 -2°C° 0 mm 5 mps 734 mmHg 80%
    21:00 -2°C° 0.1 mm 5 mps 734 mmHg 82%
    22:00 -3°C° 0.1 mm 6 mps 733 mmHg 84%
    23:00 -2°C° 0.1 mm 6 mps 733 mmHg 86%

    Day after tomorrow, 8 December, Sunday

    Time Temperature Precipitation Wind Pressure Humidity
    00:00 -2°C° 0.1 mm 6 mps 733 mmHg 89%
    01:00 -1°C° 0.1 mm 6 mps 733 mmHg 91%
    02:00 -1°C° 0.1 mm 6 mps 733 mmHg 93%
    03:00 -1°C° 0.3 mm 6 mps 732 mmHg 92%
    04:00 0°C° 0.3 mm 5 mps 732 mmHg 91%
    05:00 0°C° 0.3 mm 5 mps 732 mmHg 90%
    06:00 0°C° 0 mm 5 mps 733 mmHg 90%
    07:00 -1°C° 0 mm 6 mps 733 mmHg 91%
    08:00 -1°C° 0 mm 6 mps 734 mmHg 92%
    09:00 -2°C° 0 mm 6 mps 734 mmHg 92%
    10:00 -2°C° 0 mm 6 mps 735 mmHg 91%
    11:00 -2°C° 0 mm 6 mps 735 mmHg 91%
    12:00 -1°C° 0 mm 5 mps 736 mmHg 91%
    13:00 -1°C° 0 mm 5 mps 736 mmHg 90%
    14:00 -1°C° 0 mm 4 mps 736 mmHg 89%
    15:00 -1°C° 0 mm 4 mps 736 mmHg 89%
    16:00 -1°C° 0 mm 4 mps 737 mmHg 89%
    17:00 -2°C° 0 mm 4 mps 737 mmHg 89%
    18:00 -2°C° 0 mm 5 mps 737 mmHg 90%
    19:00 -2°C° 0 mm 5 mps 737 mmHg 91%
    20:00 -2°C° 0 mm 5 mps 737 mmHg 92%
    21:00 -1°C° 0.2 mm 5 mps 736 mmHg 93%
    22:00 -1°C° 0.2 mm 6 mps 736 mmHg 95%
    23:00 -1°C° 0.2 mm 6 mps 735 mmHg 96%

    9 December, Monday

    Time Temperature Precipitation Wind Pressure Humidity
    00:00 +1°C° 0.3 mm 6 mps 735 mmHg 96%
    01:00 +1°C° 0.3 mm 6 mps 735 mmHg 95%
    02:00 +1°C° 0.3 mm 6 mps 735 mmHg 94%
    03:00 +1°C° 0.1 mm 6 mps 734 mmHg 93%
    04:00 0°C° 0.1 mm 7 mps 734 mmHg 91%
    05:00 0°C° 0.1 mm 7 mps 733 mmHg 90%
    06:00 0°C° 0.1 mm 7 mps 733 mmHg 90%
    07:00 0°C° 0.1 mm 7 mps 733 mmHg 90%
    08:00 0°C° 0.1 mm 7 mps 733 mmHg 90%
    09:00 0°C° 0.1 mm 7 mps 733 mmHg 90%
    10:00 0°C° 0.1 mm 7 mps 733 mmHg 90%
    11:00 +1°C° 0.1 mm 6 mps 733 mmHg 90%
    12:00 +1°C° 0 mm 6 mps 733 mmHg 91%
    13:00 +2°C° 0 mm 5 mps 733 mmHg 91%
    14:00 +2°C° 0 mm 5 mps 733 mmHg 92%
    15:00 +3°C° 0.5 mm 4 mps 733 mmHg 93%
    16:00 +3°C° 0.5 mm 4 mps 733 mmHg 95%
    17:00 +1°C° 0.5 mm 4 mps 733 mmHg 96%
    18:00 +1°C° 0.2 mm 4 mps 733 mmHg 96%
    19:00 +2°C° 0.2 mm 3 mps 733 mmHg 96%
    20:00 +2°C° 0.2 mm 3 mps 734 mmHg 96%
    21:00 +2°C° 0 mm 3 mps 734 mmHg 96%
    22:00 +2°C° 0 mm 3 mps 734 mmHg 96%
    23:00 +1°C° 0 mm 3 mps 734 mmHg 96%

    10 December, Tuesday

    Time Temperature Precipitation Wind Pressure Humidity
    00:00 +1°C° 0 mm 3 mps 735 mmHg 97%
    01:00 +2°C° 0 mm 2 mps 735 mmHg 97%
    02:00 +2°C° 0 mm 2 mps 735 mmHg 97%
    03:00 +2°C° 0 mm 2 mps 735 mmHg 97%
    04:00 +2°C° 0 mm 2 mps 735 mmHg 98%
    05:00 +2°C° 0 mm 2 mps 735 mmHg 98%
    06:00 +2°C° 0 mm 2 mps 736 mmHg 98%
    07:00 +2°C° 0 mm 2 mps 736 mmHg 97%
    08:00 +2°C° 0 mm 2 mps 736 mmHg 97%
    09:00 +3°C° 0.1 mm 2 mps 736 mmHg 97%
    10:00 +3°C° 0.1 mm 2 mps 736 mmHg 97%
    11:00 +3°C° 0.1 mm 2 mps 736 mmHg 97%
    12:00 +3°C° 0.2 mm 2 mps 736 mmHg 97%
    13:00 +3°C° 0.2 mm 2 mps 736 mmHg 97%
    14:00 +3°C° 0.2 mm 2 mps 736 mmHg 98%
    15:00 +3°C° 0.2 mm 2 mps 736 mmHg 98%
    16:00 +3°C° 0.2 mm 2 mps 736 mmHg 98%
    17:00 +3°C° 0.2 mm 2 mps 736 mmHg 98%
    18:00 +3°C° 0.3 mm 2 mps 736 mmHg 97%
    19:00 +3°C° 0.3 mm 2 mps 737 mmHg 97%
    20:00 +3°C° 0.3 mm 2 mps 737 mmHg 97%
    21:00 +2°C° 0 mm 2 mps 737 mmHg 97%
    22:00 +2°C° 0 mm 2 mps 737 mmHg 96%
    23:00 +1°C° 0 mm 2 mps 738 mmHg 96%

    11 December, Wednesday

    Time Temperature Precipitation Wind Pressure Humidity
    00:00 0°C° 0 mm 3 mps 738 mmHg 96%
    01:00 +1°C° 0 mm 3 mps 738 mmHg 96%
    02:00 +1°C° 0 mm 3 mps 739 mmHg 96%
    03:00 +1°C° 0.1 mm 3 mps 739 mmHg 96%
    04:00 0°C° 0.1 mm 4 mps 740 mmHg 96%
    05:00 0°C° 0.1 mm 4 mps 741 mmHg 97%
    06:00 -2°C° 0.2 mm 4 mps 741 mmHg 94%
    07:00 -3°C° 0.2 mm 4 mps 742 mmHg 91%
    08:00 -4°C° 0.2 mm 4 mps 742 mmHg 88%
    09:00 -4°C° 0 mm 4 mps 743 mmHg 85%
    10:00 -2°C° 0 mm 3 mps 744 mmHg 81%
    11:00 -2°C° 0 mm 3 mps 745 mmHg 78%
    12:00 -2°C° 0 mm 3 mps 745 mmHg 78%
    13:00 -2°C° 0 mm 2 mps 745 mmHg 77%
    14:00 0°C° 0 mm 1 mps 745 mmHg 77%
    15:00 0°C° 0 mm 1 mps 746 mmHg 80%
    16:00 -1°C° 0 mm 1 mps 746 mmHg 82%
    17:00 -1°C° 0 mm 1 mps 747 mmHg 85%
    18:00 -2°C° 0 mm 1 mps 747 mmHg 84%
    19:00 -2°C° 0 mm 1 mps 747 mmHg 84%
    20:00 -2°C° 0 mm 1 mps 747 mmHg 83%
    21:00 -2°C° 0 mm 1 mps 747 mmHg 82%
    22:00 -4°C° 0 mm 2 mps 747 mmHg 81%
    23:00 -4°C° 0 mm 2 mps 747 mmHg 80%
    Show more